| time (UTC) | temp F | wind direction | speed knots | gust knots | rain 1hr in | rain 24hr in | rain mn in | humidity % | barometer mb |
| 20260906082223 | 71 | 119 | 0.0 | 1.7 | 0.00 | 0.36 | 0.00 | 93 | 1011.5 |
| 20260906081220 | 71 | 110 | 0.9 | 2.6 | 0.00 | 0.36 | 0.00 | 93 | 1011.4 |
| 20260906080216 | 71 | 67 | 0.0 | 0.0 | 0.00 | 0.36 | 0.00 | 93 | 1011.2 |
| 20260906075226 | 72 | 17 | 0.0 | 0.0 | 0.00 | 0.36 | 0.00 | 93 | 1011.1 |
| 20260906074242 | 72 | 17 | 0.0 | 0.0 | 0.00 | 0.36 | 0.00 | 93 | 1011.0 |
| 20260906073218 | 72 | 17 | 0.0 | 0.0 | 0.00 | 0.36 | 0.00 | 93 | 1011.0 |
| 20260906072234 | 72 | 17 | 0.0 | 0.0 | 0.00 | 0.36 | 0.00 | 93 | 1011.2 |
| 20260906071251 | 72 | 17 | 0.0 | 0.0 | 0.00 | 0.36 | 0.00 | 93 | 1011.3 |
| 20260906070226 | 72 | 17 | 0.0 | 0.0 | 0.00 | 0.36 | 0.00 | 93 | 1011.3 |
| 20260906065236 | 72 | 17 | 0.0 | 0.0 | 0.00 | 0.36 | 0.00 | 93 | 1011.3 |
| 20260906064233 | 72 | 17 | 0.0 | 0.0 | 0.00 | 0.36 | 0.00 | 93 | 1011.4 |
| 20260906063220 | 72 | 17 | 0.0 | 0.0 | 0.00 | 0.36 | 0.00 | 93 | 1011.4 |
| 20260906062217 | 73 | 17 | 0.0 | 0.0 | 0.00 | 0.36 | 0.00 | 93 | 1011.5 |
| 20260906061213 | 73 | 32 | 0.0 | 0.0 | 0.00 | 0.36 | 0.00 | 93 | 1011.6 |
| 20260906060229 | 73 | 32 | 0.0 | 0.0 | 0.00 | 0.36 | 0.00 | 93 | 1011.6 |
| 20260906055239 | 73 | 32 | 0.0 | 0.0 | 0.00 | 0.36 | 0.00 | 93 | 1011.9 |
| 20260906054215 | 72 | 32 | 0.0 | 0.0 | 0.00 | 0.36 | 0.00 | 93 | 1011.9 |
| 20260906053232 | 72 | 32 | 0.0 | 0.0 | 0.00 | 0.36 | 0.00 | 93 | 1012.2 |
| 20260906052219 | 72 | 32 | 0.0 | 0.0 | 0.00 | 0.36 | 0.00 | 93 | 1012.2 |
| 20260906051215 | 72 | 32 | 0.0 | 0.0 | 0.00 | 0.36 | 0.00 | 93 | 1012.2 |
| 20260906050232 | 72 | 32 | 0.0 | 0.0 | 0.00 | 0.36 | 0.00 | 93 | 1012.3 |
| 20260906045221 | 72 | 32 | 0.0 | 0.0 | 0.00 | 0.36 | 0.00 | 93 | 1012.3 |
| 20260906044238 | 73 | 32 | 0.0 | 0.0 | 0.00 | 0.36 | 0.00 | 93 | 1012.5 |
| 20260906043214 | 73 | 32 | 0.0 | 0.0 | 0.00 | 0.36 | 0.00 | 93 | 1012.6 |
| 20260906042230 | 73 | 32 | 0.0 | 0.0 | 0.00 | 0.36 | 0.00 | 93 | 1012.6 |
| 20260906041247 | 73 | 32 | 0.0 | 0.0 | 0.00 | 0.36 | 0.00 | 93 | 1012.6 |
| 20260906040222 | 73 | 32 | 0.0 | 0.0 | 0.00 | 0.36 | 0.36 | 93 | 1012.6 |
| 20260906035248 | 73 | 32 | 0.0 | 0.0 | 0.00 | 0.36 | 0.36 | 93 | 1012.7 |
| 20260906034223 | 73 | 32 | 0.0 | 0.0 | 0.00 | 0.36 | 0.36 | 92 | 1012.7 |
| 20260906033220 | 74 | 32 | 0.0 | 0.0 | 0.00 | 0.36 | 0.36 | 93 | 1012.7 |
| 20260906032215 | 74 | 32 | 0.0 | 0.0 | 0.00 | 0.36 | 0.36 | 92 | 1012.7 |
| 20260906031251 | 74 | 32 | 0.0 | 0.0 | 0.00 | 0.36 | 0.36 | 92 | 1012.8 |
| 20260906030224 | 74 | 32 | 0.0 | 0.0 | 0.00 | 0.36 | 0.36 | 92 | 1012.7 |
| 20260906025213 | 74 | 32 | 0.0 | 0.0 | 0.00 | 0.36 | 0.36 | 92 | 1012.7 |
| 20260906024230 | 74 | 32 | 0.0 | 0.0 | 0.00 | 0.36 | 0.36 | 92 | 1012.7 |
| 20260906023226 | 74 | 32 | 0.0 | 0.0 | 0.00 | 0.36 | 0.36 | 92 | 1012.6 |
| 20260906022214 | 74 | 32 | 0.0 | 0.0 | 0.00 | 0.36 | 0.36 | 92 | 1012.7 |
| 20260906021259 | 74 | 32 | 0.0 | 0.0 | 0.00 | 0.36 | 0.36 | 92 | 1012.7 |
| 20260906020235 | 74 | 32 | 0.0 | 0.0 | 0.00 | 0.36 | 0.36 | 92 | 1012.5 |
| 20260906015224 | 74 | 32 | 0.0 | 0.0 | 0.00 | 0.36 | 0.36 | 91 | 1012.3 |
| 20260906014220 | 74 | 32 | 0.0 | 0.0 | 0.00 | 0.36 | 0.36 | 91 | 1012.3 |
| 20260906013236 | 75 | 32 | 0.0 | 0.0 | 0.00 | 0.36 | 0.36 | 91 | 1012.2 |
| 20260906012224 | 75 | 32 | 0.0 | 0.0 | 0.00 | 0.36 | 0.36 | 91 | 1012.1 |
| 20260906011220 | 75 | 32 | 0.0 | 0.0 | 0.00 | 0.36 | 0.36 | 91 | 1011.9 |
| 20260906010217 | 75 | 32 | 0.0 | 0.0 | 0.00 | 0.36 | 0.36 | 91 | 1012.0 |
| 20260906005247 | 76 | 32 | 0.0 | 0.0 | 0.00 | 0.36 | 0.36 | 90 | 1011.9 |
| 20260906004223 | 76 | 32 | 0.0 | 0.0 | 0.00 | 0.36 | 0.36 | 91 | 1011.9 |
| 20260906003240 | 76 | 32 | 0.0 | 0.0 | 0.00 | 0.36 | 0.36 | 91 | 1011.8 |
| 20260906002215 | 76 | 32 | 0.0 | 0.0 | 0.00 | 0.36 | 0.36 | 91 | 1011.7 |
| 20260906001227 | 76 | 32 | 0.0 | 0.0 | 0.00 | 0.36 | 0.36 | 90 | 1011.5 |
| 20260906000226 | 76 | 32 | 0.0 | 0.9 | 0.00 | 0.36 | 0.36 | 90 | 1011.4 |
| 20260905235215 | 77 | 32 | 0.0 | 0.0 | 0.00 | 0.36 | 0.36 | 89 | 1011.4 |
| 20260905234230 | 78 | 32 | 0.0 | 0.0 | 0.00 | 0.36 | 0.36 | 89 | 1011.3 |
| 20260905233217 | 78 | 32 | 0.0 | 0.0 | 0.00 | 0.36 | 0.36 | 89 | 1011.4 |
| 20260905232214 | 78 | 32 | 0.0 | 0.0 | 0.00 | 0.36 | 0.36 | 89 | 1011.3 |
| 20260905231230 | 79 | 32 | 0.0 | 0.9 | 0.00 | 0.36 | 0.36 | 89 | 1011.4 |
| 20260905230227 | 79 | 32 | 0.0 | 1.7 | 0.00 | 0.36 | 0.36 | 88 | 1011.4 |
| 20260905225217 | 79 | 64 | 0.0 | 0.9 | 0.00 | 0.36 | 0.36 | 89 | 1011.3 |
| 20260905224234 | 78 | 47 | 0.9 | 2.6 | 0.00 | 0.36 | 0.36 | 89 | 1011.1 |
| 20260905223229 | 78 | 92 | 0.9 | 1.7 | 0.00 | 0.36 | 0.36 | 89 | 1011.0 |
| 20260905222246 | 77 | 5 | 0.0 | 1.7 | 0.00 | 0.36 | 0.36 | 91 | 1010.9 |
| 20260905221221 | 77 | 5 | 0.0 | 1.7 | 0.00 | 0.36 | 0.36 | 91 | 1010.9 |
| 20260905220238 | 76 | 5 | 0.9 | 1.7 | 0.00 | 0.36 | 0.36 | 92 | 1010.9 |
| 20260905215247 | 76 | 5 | 0.9 | 1.7 | 0.00 | 0.36 | 0.36 | 92 | 1011.3 |
| 20260905214223 | 75 | 5 | 0.0 | 1.7 | 0.00 | 0.36 | 0.36 | 92 | 1011.4 |
| 20260905213238 | 75 | 355 | 0.9 | 1.7 | 0.00 | 0.36 | 0.36 | 92 | 1011.6 |
| 20260905212225 | 74 | 347 | 0.0 | 1.7 | 0.00 | 0.36 | 0.36 | 93 | 1011.5 |
| 20260905211222 | 74 | 11 | 0.9 | 1.7 | 0.00 | 0.36 | 0.36 | 93 | 1011.9 |
| 20260905210218 | 74 | 11 | 0.9 | 2.6 | 0.00 | 0.36 | 0.36 | 93 | 1011.8 |
| 20260905205228 | 73 | 11 | 0.9 | 1.7 | 0.00 | 0.36 | 0.36 | 92 | 1011.8 |
| 20260905204244 | 73 | 11 | 0.9 | 1.7 | 0.00 | 0.36 | 0.36 | 92 | 1011.7 |
| 20260905203220 | 73 | 35 | 0.9 | 1.7 | 0.00 | 0.36 | 0.36 | 93 | 1011.3 |
| 20260905202236 | 73 | 86 | 0.0 | 0.9 | 0.00 | 0.36 | 0.36 | 92 | 1011.4 |
| 20260905201232 | 73 | 86 | 0.9 | 3.5 | 0.00 | 0.36 | 0.36 | 92 | 1011.4 |
| 20260905200244 | 73 | 76 | 0.9 | 3.5 | 0.00 | 0.36 | 0.36 | 92 | 1012.0 |
| 20260905195213 | 73 | 33 | 0.9 | 1.7 | 0.04 | 0.36 | 0.36 | 92 | 1012.4 |
| 20260905194250 | 73 | 50 | 0.9 | 1.7 | 0.18 | 0.36 | 0.36 | 91 | 1012.2 |
| 20260905193225 | 73 | 52 | 0.9 | 1.7 | 0.36 | 0.36 | 0.36 | 90 | 1011.8 |
| 20260905192221 | 73 | 79 | 0.0 | 2.6 | 0.36 | 0.36 | 0.36 | 89 | 1011.8 |
| 20260905191218 | 74 | 113 | 0.0 | 1.7 | 0.36 | 0.36 | 0.36 | 88 | 1011.7 |
| 20260905190234 | 74 | 355 | 0.0 | 0.9 | 0.36 | 0.36 | 0.36 | 87 | 1011.7 |
| 20260905185224 | 75 | 175 | 0.0 | 12.2 | 0.32 | 0.32 | 0.32 | 85 | 1012.5 |
| 20260905184220 | 79 | 51 | 5.2 | 16.5 | 0.17 | 0.17 | 0.17 | 77 | 1013.7 |
| 20260905183237 | 92 | 34 | 4.3 | 8.7 | 0.00 | 0.00 | 0.00 | 59 | 1012.6 |
| 20260905182233 | 93 | 10 | 0.9 | 1.7 | 0.00 | 0.00 | 0.00 | 56 | 1011.5 |
| 20260905181231 | 94 | 16 | 1.7 | 3.5 | 0.00 | 0.00 | 0.00 | 56 | 1011.7 |
| 20260905180246 | 94 | 41 | 2.6 | 4.3 | 0.00 | 0.00 | 0.00 | 54 | 1012.0 |
| 20260905175234 | 94 | 9 | 0.9 | 3.5 | 0.00 | 0.00 | 0.00 | 56 | 1012.2 |
| 20260905174231 | 94 | 28 | 1.7 | 3.5 | 0.00 | 0.00 | 0.00 | 58 | 1012.3 |
| 20260905173218 | 94 | 360 | 1.7 | 4.3 | 0.00 | 0.00 | 0.00 | 58 | 1012.5 |
| 20260905172214 | 94 | 355 | 0.9 | 3.5 | 0.00 | 0.00 | 0.00 | 61 | 1012.8 |
| 20260905171252 | 94 | 300 | 0.9 | 2.6 | 0.00 | 0.00 | 0.00 | 60 | 1012.9 |
| 20260905170227 | 93 | 63 | 0.9 | 3.5 | 0.00 | 0.00 | 0.00 | 61 | 1013.0 |
| 20260905165238 | 94 | 10 | 0.9 | 3.5 | 0.00 | 0.00 | 0.00 | 63 | 1013.0 |
| 20260905164213 | 92 | 104 | 0.9 | 3.5 | 0.00 | 0.00 | 0.00 | 64 | 1013.3 |
| 20260905163245 | 93 | 308 | 1.7 | 3.5 | 0.00 | 0.00 | 0.00 | 58 | 1013.5 |
| 20260905162220 | 93 | 12 | 0.9 | 2.6 | 0.00 | 0.00 | 0.00 | 61 | 1013.5 |
| 20260905161217 | 92 | 13 | 1.7 | 3.5 | 0.00 | 0.00 | 0.00 | 60 | 1013.6 |
| 20260905160233 | 92 | 360 | 1.7 | 2.6 | 0.00 | 0.00 | 0.00 | 64 | 1013.7 |
| 20260905155222 | 91 | 259 | 1.7 | 3.5 | 0.00 | 0.00 | 0.00 | 61 | 1013.8 |
| 20260905154218 | 91 | 12 | 0.9 | 3.5 | 0.00 | 0.00 | 0.00 | 63 | 1013.8 |
| 20260905153215 | 90 | 355 | 0.9 | 1.7 | 0.00 | 0.00 | 0.00 | 67 | 1013.8 |
| 20260905152251 | 89 | 355 | 0.9 | 1.7 | 0.00 | 0.00 | 0.00 | 68 | 1013.8 |
| 20260905151247 | 88 | 355 | 0.9 | 1.7 | 0.00 | 0.00 | 0.00 | 73 | 1013.9 |
| 20260905150251 | 88 | 279 | 0.9 | 2.6 | 0.00 | 0.00 | 0.00 | 77 | 1013.9 |
| 20260905145220 | 87 | 59 | 0.9 | 2.6 | 0.00 | 0.00 | 0.00 | 76 | 1013.9 |
| 20260905144216 | 86 | 355 | 0.9 | 3.5 | 0.00 | 0.00 | 0.00 | 79 | 1014.0 |
| 20260905143213 | 84 | 347 | 0.0 | 1.7 | 0.00 | 0.00 | 0.00 | 81 | 1013.9 |
| 20260905142230 | 84 | 13 | 0.9 | 2.6 | 0.00 | 0.00 | 0.00 | 81 | 1013.9 |
| 20260905141217 | 82 | 23 | 0.0 | 0.0 | 0.00 | 0.00 | 0.00 | 84 | 1014.0 |
| 20260905140214 | 81 | 23 | 0.0 | 0.0 | 0.00 | 0.00 | 0.00 | 86 | 1014.0 |
| 20260905135232 | 80 | 23 | 0.0 | 0.0 | 0.00 | 0.00 | 0.00 | 87 | 1014.0 |
| 20260905134220 | 79 | 26 | 0.0 | 1.7 | 0.00 | 0.00 | 0.00 | 89 | 1014.2 |
| 20260905133216 | 79 | 14 | 0.0 | 0.0 | 0.00 | 0.00 | 0.00 | 90 | 1014.2 |
| 20260905132213 | 78 | 14 | 0.0 | 0.0 | 0.00 | 0.00 | 0.00 | 90 | 1014.1 |
| 20260905131249 | 78 | 22 | 0.0 | 1.7 | 0.00 | 0.00 | 0.00 | 91 | 1014.1 |
| 20260905130225 | 77 | 22 | 0.0 | 1.7 | 0.00 | 0.00 | 0.00 | 91 | 1014.2 |
| 20260905125235 | 76 | 22 | 0.0 | 0.9 | 0.00 | 0.00 | 0.00 | 92 | 1014.3 |
| 20260905124226 | 75 | 51 | 0.0 | 0.0 | 0.00 | 0.00 | 0.00 | 92 | 1014.4 |
| 20260905123223 | 74 | 76 | 0.0 | 0.0 | 0.00 | 0.00 | 0.00 | 92 | 1014.3 |
| 20260905122219 | 74 | 76 | 0.0 | 0.0 | 0.00 | 0.00 | 0.00 | 92 | 1014.2 |
| 20260905114223 | 74 | 76 | 0.0 | 0.0 | 0.00 | 0.00 | 0.00 | 92 | 1014.1 |
| 20260905113239 | 73 | 76 | 0.0 | 0.0 | 0.00 | 0.00 | 0.00 | 92 | 1013.9 |
| 20260905112215 | 73 | 76 | 0.0 | 0.0 | 0.00 | 0.00 | 0.00 | 92 | 1013.6 |
| 20260905111231 | 74 | 76 | 0.0 | 0.0 | 0.00 | 0.00 | 0.00 | 92 | 1013.5 |
| 20260905110248 | 74 | 76 | 0.0 | 0.0 | 0.00 | 0.00 | 0.00 | 91 | 1013.3 |
| 20260905105216 | 74 | 76 | 0.0 | 0.0 | 0.00 | 0.00 | 0.00 | 91 | 1013.1 |
| 20260905104220 | 74 | 76 | 0.0 | 0.0 | 0.00 | 0.00 | 0.00 | 91 | 1013.1 |
| 20260905103217 | 74 | 76 | 0.0 | 0.0 | 0.00 | 0.00 | 0.00 | 91 | 1013.0 |
| 20260905102233 | 74 | 76 | 0.0 | 0.0 | 0.00 | 0.00 | 0.00 | 91 | 1013.0 |
| 20260905101221 | 74 | 76 | 0.0 | 0.0 | 0.00 | 0.00 | 0.00 | 91 | 1013.0 |
| 20260905100217 | 74 | 76 | 0.0 | 0.0 | 0.00 | 0.00 | 0.00 | 91 | 1012.9 |
| 20260905095223 | 75 | 76 | 0.0 | 0.0 | 0.00 | 0.00 | 0.00 | 91 | 1012.8 |
| 20260905094220 | 75 | 76 | 0.0 | 0.0 | 0.00 | 0.00 | 0.00 | 90 | 1012.9 |
| 20260905093216 | 75 | 76 | 0.0 | 0.0 | 0.00 | 0.00 | 0.00 | 90 | 1013.0 |
| 20260905092231 | 75 | 76 | 0.0 | 0.0 | 0.00 | 0.00 | 0.00 | 90 | 1013.0 |
| 20260905091228 | 75 | 76 | 0.0 | 0.0 | 0.00 | 0.00 | 0.00 | 90 | 1013.1 |
| 20260905090225 | 75 | 76 | 0.0 | 0.0 | 0.00 | 0.00 | 0.00 | 90 | 1013.1 |
| 20260905085253 | 75 | 76 | 0.0 | 0.0 | 0.00 | 0.00 | 0.00 | 90 | 1013.0 |
| 20260905084229 | 75 | 76 | 0.0 | 0.0 | 0.00 | 0.00 | 0.00 | 90 | 1013.1 |
| 20260905083225 | 76 | 76 | 0.0 | 0.0 | 0.00 | 0.00 | 0.00 | 90 | 1013.2 |